Regional Weather Roundup
Issued by NWS

Home | Current Version | Previous Version | Graphics & Text | Print | Product List | Glossary On
Versions: 1 2 3 4 5 6 7 8 9 10 11 12 13 14 15 16 17 18 19 20 21 22 23 24 25 26 27 28 29 30 31 32 33 34 35 36 37 38 39 40 41 42 43 44 45 46 47 48 49 50
000
ASUS45 KPSR 012210
RWRAZ

ARIZONA REGIONAL HOURLY WEATHER ROUNDUP
NATIONAL WEATHER SERVICE PHOENIX AZ
300 PM MST WED OCT 01 2014

NOTE: FAIR INDICATES FEW OR NO CLOUDS BELOW 12,000 FEET WITH NO
SIGNIFICANT WEATHER AND/OR OBSTRUCTIONS TO VISIBILITY.

AZZ001>003-036-012300-
NORTHWEST ARIZONA

CITY           SKY/WX    TMP DP  RH WIND       PRES   REMARKS
BULLHEAD CITY  SUNNY     90  39  17 N24       29.79R
KINGMAN        SUNNY     80  35  19 N15       29.93S
$$

AZZ004>008-015-016-018-012300-
NORTH CENTRAL ARIZONA

CITY           SKY/WX    TMP DP  RH WIND       PRES   REMARKS
GRAND CANYON   MOSUNNY   63  36  36 W10G18    30.06S
PRESCOTT       MOSUNNY   73  34  23 W9G22     29.98S
FLAGSTAFF      PTSUNNY   62  32  32 W8        30.07R
PAYSON         MOSUNNY   73  36  25 SW9G18    29.99R
PAGE           PTSUNNY   72  36  26 CALM      29.92S
$$

AZZ009>014-017-012300-
NORTHEAST ARIZONA

CITY           SKY/WX    TMP DP  RH WIND       PRES   REMARKS
WINSLOW        MOSUNNY   77  34  21 MISG      29.93S
SAINT JOHNS    SUNNY     72  32  23 NW14      29.96S
WINDOW ROCK    MOSUNNY   68  31  25 W12       30.01
SHOW LOW       PTSUNNY   66  34  30 S12G17    30.04S
$$

AZZ023-012300-
GREATER PHOENIX AREA

CITY           SKY/WX    TMP DP  RH WIND       PRES   REMARKS
PHOENIX        MOSUNNY   88  36  15 VRB3      29.76S
BUCKEYE          N/A     86  39  19 CALM      29.78S
GLENDALE       MOSUNNY   90  39  17 SE5       29.78S
LUKE AFB       SUNNY     88  41  19 S7        29.76F
DEER VALLEY    SUNNY     85  37  18 CALM      29.78S
SCOTTSDALE     SUNNY     87  37  17 CALM      29.79F
MESA-FALCON    SUNNY     88  37  16 VRB5      29.78F
MESA-GATEWAY   MOSUNNY   86  43  22 W8        29.80S
CHANDLER       MOSUNNY   88  41  19 VRB6      29.78S
$$

AZZ027-028-012300-
SOUTHWEST MARICOPA COUNTY AND PINAL COUNTY

CITY           SKY/WX    TMP DP  RH WIND       PRES   REMARKS
CASA GRANDE    SUNNY     88  41  19 CALM      29.79S
GILA BEND      CLEAR     91  39  16 NW6       29.79F
$$

AZZ503-504-507>509-012300-
SOUTHEAST ARIZONA

CITY           SKY/WX    TMP DP  RH WIND       PRES   REMARKS
TUCSON         SUNNY     89  34  14 NW9       29.83F
DAVIS-MONTHAN  SUNNY     87  36  16 W12       29.82S
RYAN FIELD       N/A     91  39  16 SW10      29.82F
NOGALES        SUNNY     83  39  21 VRB6      29.91S
SIERRA VISTA   SUNNY     81  30  16 W15G24    29.95S
DOUGLAS        SUNNY     85  31  14 SW17G30   29.91S
SAFFORD        SUNNY     84  35  17 W12       29.83F
$$

AZZ020-021-025-026-031-012300-
SOUTHWEST ARIZONA

CITY           SKY/WX    TMP DP  RH WIND       PRES   REMARKS
YUMA           MOSUNNY   93  49  22 SW3       29.71F
$$

CAZ031-033-041-043-047-048-061-012300-
SOUTHERN CALIFORNIA

CITY           SKY/WX    TMP DP  RH WIND       PRES   REMARKS
DOWNTOWN L.A.  SUNNY     78  62  57 VRB7      29.77S
L.A. AIRPORT   MOSUNNY   72  62  71 W13       29.78F
SAN DIEGO      MOSUNNY   75  62  64 W8        29.79F
BURBANK        SUNNY     83  54  36 S9        29.76F
ONTARIO        SUNNY     88  52  29 W13       29.76F
RIVERSIDE      SUNNY     87  52  29 SW8       29.76S
PALM SPRINGS   SUNNY     97  33  10 CALM      29.75S
EL CENTRO NAS  MOSUNNY   95  39  14 MISG      29.70F
IMPERIAL       SUNNY     93  40  15 VRB3      29.70F
BLYTHE         SUNNY     92  45  19 VRB3      29.73F
NEEDLES        SUNNY     94  36  13 N21G28    29.78S
$$

NVZ020-UTZ003-012300-
SOUTHERN NEVADA-UTAH

CITY           SKY/WX    TMP DP  RH WIND       PRES   REMARKS
LAS VEGAS      MOSUNNY   83  27  13 NE10G18   29.87S
SALT LAKE CITY LGT RAIN  53  39  59 NW8       30.11R
$$

NMZ009-TXZ055-012300-
NEW MEXICO-WEST TEXAS

CITY           SKY/WX    TMP DP  RH WIND       PRES   REMARKS
ALBUQUERQUE    MOSUNNY   77  27  15 SW21G28   29.89F
EL PASO        SUNNY     83  33  16 W13       29.87F
$$


........................KEY........................
SKY/WX - SKY CONDITION/WEATHER
TMP    - TEMPERATURE IN FAHRENHEIT
DP     - DEW POINT IN FAHRENHEIT
RH     - RELATIVE HUMIDITY IN PERCENT
WIND   - DIRECTION AND SPEED IN MILES PER HOUR (MPH)
VRB    - VARIABLE WIND DIRECTION
PRES   - MEAN SEA LEVEL PRESSURE IN INCHES OF MERCURY
         F - FALLING PRESSURE   R - RISING PRESSURE
         S - STEADY PRESSURE
VSB    - VISIBILITY IN MILES
HX     - HEAT INDEX IN FAHRENHEIT
WCI    - WIND CHILL INDEX IN FAHRENHEIT
TC     - TEMPERATURE IN CELSIUS WHICH IS ALSO KNOWN AS
         TEMPERATURE IN CENTIGRADE
AFB    - AIR FORCE BASE
         LUKE AFB IS LUKE AIR FORCE BASE
         DAVIS-MONTHAN IS DAVIS-MONTHAN AIR FORCE BASE
NAS    - NAVAL AIR STATION
         EL CENTRO NAS IS EL CENTRO NAVAL AIR STATION
N/A    - NOT AVAILABLE


USA.gov is the U.S. government's official web portal to all federal, state and local government web resources and services.